Tracking 18980 objects as of 20-Feb-2018
HD Live streaming from Space Station
objects crossing your sky now

ATHENA-FIDUS

Track ATHENA-FIDUS now!
ATHENA-FIDUS is classified as:


NORAD ID: 39509
Int'l Code: 2014-006B
Perigee: 35,790.9 km
Apogee: 35,797.0 km
Inclination: 0.0 °
Period: 1,436.1 minutes
Semi major axis: 42164 km
RCS: Unknown
Launch date: February 6, 2014
Source: FRANCE/ITALY (FRIT)
Launch site: FRENCH GUIANA (FRGUI)

ATHENA-FIDUS is a military geostationary satellite featuring EHF and Ka-band transponders.
aabbcc
Your satellite tracking list
Your tracking list is empty




NASA's NSSDC Master Catalog

Two Line Element Set (TLE):
1 39509U 14006B   18050.48008342  .00000148  00000-0  00000+0 0  9992
2 39509   0.0156 142.7320 0000722 187.6880  29.5759  1.00271153 15023
Source of the keplerian elements: AFSPC